This demonstration page uses our WeatherBlox Daily Observations layout. Learn more.

Left ArrowRight Arrow

41.86663, -103.66717

Hourly Observations for October 14, 2021

Temp ( °F °C ) Dew Point ( °F °C ) Humidity (%) Winds ( mph kmh ) Pressure ( in mb ) Visibility ( mi km ) Precip ( " mm )
12:53 am 00:53 Clear 31 -0.6 26 -3.3 82 82 SW 7 11 29.92 1013 10 16 N/A
1:53 am 01:53 Clear 31 -0.6 25 -3.9 79 79 WSW 3 6 29.94 1014 10 16 N/A
2:53 am 02:53 Mostly Clear 32 undefined 25 -3.9 75 75 E 3 6 29.95 1014 10 16 N/A
3:53 am 03:53 Clear 28 -2.2 23 -5 81 81 E 3 6 29.96 1015 10 16 N/A
4:53 am 04:53 Partly Cloudy 29 -1.7 24 -4.4 82 82 NNW 5 7 29.96 1015 10 16 N/A
5:53 am 05:53 Partly Cloudy 29 -1.7 23 -5 78 78 N N/A 29.99 1016 10 16 N/A
6:53 am 06:53 Cloudy 32 undefined 24 -4.4 73 73 N N/A 30.01 1016 10 16 N/A
7:53 am 07:53 Cloudy 32 undefined 26 -3.3 79 79 W 5 7 30.03 1017 10 16 N/A
8:53 am 08:53 Cloudy 35 1.7 27 -2.8 72 72 WNW 3 6 30.05 1018 10 16 N/A
9:53 am 09:53 Mostly Cloudy 40 4.4 30 -1.1 68 68 NNW 3 6 30.04 1017 10 16 N/A
10:53 am 10:53 Cloudy 43 6.1 30 -1.1 60 60 NW 5 7 30.03 1017 10 16 N/A
11:53 am 11:53 Cloudy 46 7.8 31 -0.6 56 56 WNW 9 15 30.02 1017 10 16 N/A
12:53 pm 12:53 Mostly Cloudy 47 8.3 31 -0.6 54 54 NW 9 15 30.01 1016 10 16 N/A
1:53 pm 13:53 Sunny 50 10 30 -1.1 46 46 NNW 9 15 29.97 1015 10 16 N/A
2:53 pm 14:53 Sunny 51 10.6 30 -1.1 44 44 NW 9 15 29.97 1015 10 16 N/A
3:53 pm 15:53 Mostly Sunny 52 11.1 28 -2.2 40 40 NNW 10 17 29.98 1015 10 16 N/A
4:53 pm 16:53 Mostly Cloudy 50 10 27 -2.8 41 41 NW 8 13 29.99 1016 10 16 N/A
5:53 pm 17:53 Sunny 49 9.4 30 -1.1 48 48 N N/A 30.01 1016 10 16 N/A
6:53 pm 18:53 Mostly Cloudy 44 6.7 31 -0.6 60 60 N N/A 30.04 1017 10 16 N/A
7:53 pm 19:53 Partly Cloudy 43 6.1 29 -1.7 58 58 N N/A 30.06 1018 10 16 N/A
8:53 pm 20:53 Mostly Cloudy 38 3.3 29 -1.7 70 70 N 7 11 30.09 1019 10 16 N/A
9:53 pm 21:53 Cloudy 39 3.9 30 -1.1 70 70 WNW 7 11 30.10 1019 10 16 N/A
10:53 pm 22:53 Cloudy 37 2.8 30 -1.1 76 76 NW 5 7 30.12 1020 10 16 N/A
11:53 pm 23:53 Mostly Cloudy 36 2.2 30 -1.1 79 79 NW 6 9 30.13 1020 10 16 N/A

Powered by AerisWeather